When you browse on this site, cookies collect data to enhance your experience and personalize the content and advertising you see.
Visit our Privacy Policy to learn more. By continuing to use the site, you agree to this use of cookies and data.
  • în România
  • Lista ţărilor
  • Pe 7 zile
  • Temperatura apei
  • Meteo pe hartă
  • Widget-uri
  • user-avatar
    Intrare

    Meteo pe oră la Medan

    Astăzi, 7 Aprilie, Marţi

    Timp Temperatura Precipitaţii Vânt Presiune Umiditate
    00:00 +26°C° 0 mm 1 m/s 756 mmHg 91%
    01:00 +26°C° 0 mm 1 m/s 756 mmHg 90%
    02:00 +26°C° 0 mm 1 m/s 756 mmHg 90%
    03:00 +25°C° 0 mm 1 m/s 755 mmHg 89%
    04:00 +25°C° 0 mm 1 m/s 754 mmHg 89%
    05:00 +25°C° 0 mm 1 m/s 755 mmHg 89%
    06:00 +26°C° 0 mm 1 m/s 755 mmHg 89%
    07:00 +26°C° 0 mm 1 m/s 756 mmHg 90%
    08:00 +29°C° 0 mm 1 m/s 756 mmHg 80%
    09:00 +31°C° 0 mm 1 m/s 756 mmHg 71%
    10:00 +34°C° 0 mm 1 m/s 756 mmHg 61%
    11:00 +34°C° 0.1 mm 1 m/s 756 mmHg 59%
    12:00 +35°C° 0.1 mm 2 m/s 755 mmHg 58%
    13:00 +36°C° 0 mm 2 m/s 755 mmHg 54%
    14:00 +35°C° 0.5 mm 2 m/s 754 mmHg 59%
    15:00 +34°C° 0.5 mm 2 m/s 754 mmHg 64%
    16:00 +32°C° 0.5 mm 2 m/s 753 mmHg 69%
    17:00 +31°C° 0.6 mm 2 m/s 754 mmHg 75%
    18:00 +29°C° 0.6 mm 1 m/s 754 mmHg 82%
    19:00 +26°C° 0 mm 0 m/s 755 mmHg 87%
    20:00 +28°C° 0.4 mm 1 m/s 755 mmHg 89%
    21:00 +28°C° 0.4 mm 1 m/s 755 mmHg 90%
    22:00 +27°C° 0.4 mm 1 m/s 756 mmHg 91%
    23:00 +27°C° 0.1 mm 1 m/s 756 mmHg 91%

    Mâine, 8 Aprilie, Miercuri

    Timp Temperatura Precipitaţii Vânt Presiune Umiditate
    00:00 +27°C° 0.1 mm 1 m/s 756 mmHg 92%
    01:00 +27°C° 0.1 mm 1 m/s 756 mmHg 92%
    02:00 +27°C° 0.1 mm 1 m/s 755 mmHg 92%
    03:00 +26°C° 0.1 mm 1 m/s 755 mmHg 92%
    04:00 +24°C° 0.1 mm 0 m/s 754 mmHg 92%
    05:00 +26°C° 0 mm 1 m/s 755 mmHg 91%
    06:00 +26°C° 0 mm 1 m/s 755 mmHg 91%
    07:00 +26°C° 0 mm 1 m/s 755 mmHg 90%
    08:00 +29°C° 0 mm 1 m/s 756 mmHg 80%
    09:00 +29°C° 0 mm 0 m/s 756 mmHg 71%
    10:00 +31°C° 0 mm 0 m/s 757 mmHg 61%
    11:00 +31°C° 1.1 mm 0 m/s 756 mmHg 64%
    12:00 +33°C° 1.1 mm 1 m/s 756 mmHg 68%
    13:00 +32°C° 1.1 mm 1 m/s 755 mmHg 71%
    14:00 +32°C° 0.9 mm 1 m/s 755 mmHg 73%
    15:00 +32°C° 0.9 mm 1 m/s 754 mmHg 75%
    16:00 +31°C° 0.9 mm 1 m/s 754 mmHg 77%
    17:00 +30°C° 0.2 mm 1 m/s 754 mmHg 81%
    18:00 +29°C° 0.2 mm 1 m/s 755 mmHg 84%
    19:00 +26°C° 0.2 mm 0 m/s 755 mmHg 88%
    20:00 +28°C° 0 mm 1 m/s 756 mmHg 89%
    21:00 +27°C° 0 mm 1 m/s 756 mmHg 90%
    22:00 +27°C° 0 mm 1 m/s 757 mmHg 91%
    23:00 +27°C° 0 mm 1 m/s 756 mmHg 91%

    Poimâine, 9 Aprilie, Joi

    Timp Temperatura Precipitaţii Vânt Presiune Umiditate
    00:00 +27°C° 0 mm 1 m/s 756 mmHg 91%
    01:00 +27°C° 0 mm 1 m/s 756 mmHg 91%
    02:00 +26°C° 0 mm 1 m/s 755 mmHg 91%
    03:00 +24°C° 0 mm 0 m/s 755 mmHg 91%
    04:00 +24°C° 0 mm 0 m/s 754 mmHg 90%
    05:00 +24°C° 0 mm 0 m/s 755 mmHg 90%
    06:00 +26°C° 0 mm 1 m/s 755 mmHg 90%
    07:00 +26°C° 0 mm 1 m/s 756 mmHg 89%
    08:00 +29°C° 0.1 mm 1 m/s 756 mmHg 79%
    09:00 +31°C° 0.1 mm 1 m/s 756 mmHg 69%
    10:00 +32°C° 0.1 mm 0 m/s 757 mmHg 59%
    11:00 +34°C° 0.4 mm 1 m/s 756 mmHg 60%
    12:00 +35°C° 0.4 mm 2 m/s 756 mmHg 61%
    13:00 +35°C° 0.4 mm 2 m/s 755 mmHg 62%
    14:00 +34°C° 0.9 mm 2 m/s 755 mmHg 65%
    15:00 +34°C° 0.9 mm 2 m/s 754 mmHg 69%
    16:00 +32°C° 0.9 mm 2 m/s 754 mmHg 72%
    17:00 +31°C° 0.4 mm 1 m/s 754 mmHg 76%
    18:00 +30°C° 0.4 mm 1 m/s 755 mmHg 81%
    19:00 +26°C° 0.4 mm 0 m/s 755 mmHg 85%
    20:00 +28°C° 0.1 mm 1 m/s 756 mmHg 86%
    21:00 +28°C° 0.1 mm 1 m/s 756 mmHg 88%
    22:00 +27°C° 0.1 mm 1 m/s 757 mmHg 89%
    23:00 +27°C° 0.1 mm 1 m/s 756 mmHg 90%

    10 Aprilie, Vineri

    Timp Temperatura Precipitaţii Vânt Presiune Umiditate
    00:00 +27°C° 0.1 mm 1 m/s 756 mmHg 91%
    01:00 +24°C° 0.1 mm 0 m/s 756 mmHg 91%
    02:00 +26°C° 0 mm 1 m/s 756 mmHg 91%
    03:00 +26°C° 0 mm 1 m/s 755 mmHg 91%
    04:00 +26°C° 0 mm 1 m/s 755 mmHg 91%
    05:00 +26°C° 0 mm 1 m/s 756 mmHg 91%
    06:00 +26°C° 0 mm 1 m/s 756 mmHg 90%
    07:00 +26°C° 0 mm 1 m/s 756 mmHg 89%
    08:00 +29°C° 0 mm 1 m/s 757 mmHg 79%
    09:00 +29°C° 0 mm 0 m/s 757 mmHg 68%
    10:00 +32°C° 0 mm 0 m/s 758 mmHg 57%
    11:00 +34°C° 0 mm 1 m/s 757 mmHg 55%
    12:00 +35°C° 0 mm 1 m/s 756 mmHg 53%
    13:00 +36°C° 0 mm 2 m/s 756 mmHg 51%
    14:00 +36°C° 0 mm 2 m/s 755 mmHg 53%
    15:00 +35°C° 0 mm 2 m/s 754 mmHg 56%
    16:00 +35°C° 0 mm 2 m/s 754 mmHg 58%
    17:00 +32°C° 0 mm 2 m/s 754 mmHg 66%
    18:00 +30°C° 0 mm 1 m/s 755 mmHg 74%
    19:00 +28°C° 0 mm 1 m/s 756 mmHg 82%
    20:00 +28°C° 0 mm 1 m/s 756 mmHg 84%
    21:00 +28°C° 0 mm 1 m/s 756 mmHg 85%
    22:00 +27°C° 0 mm 1 m/s 757 mmHg 87%
    23:00 +27°C° 0 mm 1 m/s 757 mmHg 88%

    11 Aprilie, Sâmbătă

    Timp Temperatura Precipitaţii Vânt Presiune Umiditate
    00:00 +27°C° 0 mm 1 m/s 757 mmHg 89%
    01:00 +27°C° 0 mm 1 m/s 756 mmHg 89%
    02:00 +27°C° 0 mm 1 m/s 756 mmHg 89%
    03:00 +24°C° 0 mm 0 m/s 756 mmHg 89%
    04:00 +24°C° 0 mm 0 m/s 755 mmHg 89%
    05:00 +24°C° 0 mm 0 m/s 755 mmHg 88%
    06:00 +24°C° 0 mm 0 m/s 756 mmHg 88%
    07:00 +25°C° 0 mm 0 m/s 756 mmHg 87%
    08:00 +29°C° 0 mm 1 m/s 756 mmHg 78%
    09:00 +31°C° 0 mm 1 m/s 757 mmHg 70%
    10:00 +33°C° 0 mm 1 m/s 757 mmHg 61%
    11:00 +34°C° 0 mm 1 m/s 756 mmHg 57%
    12:00 +36°C° 0 mm 2 m/s 756 mmHg 53%
    13:00 +37°C° 0 mm 2 m/s 755 mmHg 49%
    14:00 +36°C° 0.1 mm 2 m/s 754 mmHg 54%
    15:00 +35°C° 0.1 mm 3 m/s 754 mmHg 58%
    16:00 +34°C° 0.1 mm 3 m/s 753 mmHg 63%
    17:00 +32°C° 1.1 mm 2 m/s 754 mmHg 71%
    18:00 +30°C° 1.1 mm 2 m/s 754 mmHg 78%
    19:00 +28°C° 1.1 mm 1 m/s 755 mmHg 86%
    20:00 +28°C° 1 mm 1 m/s 755 mmHg 87%
    21:00 +28°C° 1 mm 1 m/s 756 mmHg 89%
    22:00 +25°C° 1 mm 0 m/s 756 mmHg 90%
    23:00 +27°C° 1.1 mm 1 m/s 756 mmHg 91%

    12 Aprilie, Duminică

    Timp Temperatura Precipitaţii Vânt Presiune Umiditate
    00:00 +27°C° 1.1 mm 1 m/s 756 mmHg 93%
    01:00 +27°C° 1.1 mm 2 m/s 755 mmHg 94%
    02:00 +26°C° 1.2 mm 2 m/s 755 mmHg 93%
    03:00 +26°C° 1.2 mm 2 m/s 755 mmHg 92%
    04:00 +25°C° 1.2 mm 2 m/s 754 mmHg 91%
    05:00 +25°C° 0.2 mm 2 m/s 754 mmHg 90%
    06:00 +25°C° 0.2 mm 1 m/s 755 mmHg 90%
    07:00 +25°C° 0.2 mm 1 m/s 755 mmHg 89%
    08:00 +27°C° 0 mm 1 m/s 755 mmHg 79%
    09:00 +30°C° 0 mm 1 m/s 756 mmHg 70%
    10:00 +32°C° 0 mm 1 m/s 756 mmHg 60%
    11:00 +33°C° 0 mm 1 m/s 756 mmHg 55%
    12:00 +35°C° 0 mm 1 m/s 755 mmHg 51%
    13:00 +37°C° 0 mm 2 m/s 755 mmHg 46%
    14:00 +36°C° 0.1 mm 2 m/s 754 mmHg 50%
    15:00 +36°C° 0.1 mm 2 m/s 754 mmHg 53%
    16:00 +35°C° 0.1 mm 3 m/s 753 mmHg 57%
    17:00 +32°C° 0 mm 2 m/s 753 mmHg 64%
    18:00 +30°C° 0 mm 1 m/s 754 mmHg 71%
    19:00 +29°C° 0 mm 1 m/s 754 mmHg 78%
    20:00 +28°C° 0.1 mm 1 m/s 755 mmHg 79%
    21:00 +26°C° 0.1 mm 0 m/s 755 mmHg 80%
    22:00 +26°C° 0.1 mm 0 m/s 756 mmHg 81%
    23:00 +26°C° 0 mm 0 m/s 755 mmHg 82%
    Arată mai mult